TimeCST,TemperatureF,Dew PointF,Humidity,Sea Level PressureIn,VisibilityMPH,Wind Direction,Wind SpeedMPH,Gust SpeedMPH,PrecipitationIn,Events,Conditions,WindDirDegrees,DateUTC
12:15 AM,37.4,26.6,65,30.46,10.0,NNE,5.8,-,N/A,,Clear,30,2012-11-14 06:15:00
12:35 AM,35.6,26.6,70,30.45,10.0,NE,4.6,-,N/A,,Clear,40,2012-11-14 06:35:00
12:55 AM,35.6,26.6,70,30.45,10.0,NNE,3.5,-,N/A,,Clear,30,2012-11-14 06:55:00
1:15 AM,35.6,28.4,75,30.46,10.0,NNE,4.6,-,N/A,,Clear,30,2012-11-14 07:15:00
1:35 AM,35.6,26.6,70,30.46,10.0,NNE,4.6,-,N/A,,Clear,30,2012-11-14 07:35:00
1:55 AM,32.0,26.6,80,30.46,10.0,Calm,Calm,-,N/A,,Clear,0,2012-11-14 07:55:00
2:15 AM,33.8,28.4,81,30.46,10.0,NNE,4.6,-,N/A,,Clear,20,2012-11-14 08:15:00
2:35 AM,35.6,28.4,75,30.46,10.0,NNE,4.6,-,N/A,,Clear,30,2012-11-14 08:35:00
2:55 AM,35.6,28.4,75,30.45,10.0,NNE,5.8,-,N/A,,Clear,30,2012-11-14 08:55:00
3:15 AM,35.6,28.4,75,30.44,7.0,NE,6.9,-,N/A,,Clear,50,2012-11-14 09:15:00
3:35 AM,35.6,28.4,75,30.43,7.0,NNE,4.6,-,N/A,,Clear,30,2012-11-14 09:35:00
3:55 AM,35.6,28.4,75,30.44,10.0,North,3.5,-,N/A,,Clear,10,2012-11-14 09:55:00
4:15 AM,33.8,26.6,75,30.45,10.0,NW,3.5,-,N/A,,Clear,320,2012-11-14 10:15:00
4:35 AM,33.8,28.4,81,30.45,10.0,Calm,Calm,-,N/A,,Clear,0,2012-11-14 10:35:00
4:55 AM,33.8,26.6,75,30.46,10.0,West,4.6,-,N/A,,Clear,280,2012-11-14 10:55:00
5:15 AM,33.8,26.6,75,30.46,10.0,North,4.6,-,N/A,,Clear,360,2012-11-14 11:15:00
5:35 AM,33.8,26.6,75,30.45,10.0,NNE,4.6,-,N/A,,Clear,30,2012-11-14 11:35:00
5:55 AM,32.0,26.6,80,30.46,10.0,Calm,Calm,-,N/A,,Clear,0,2012-11-14 11:55:00
6:15 AM,33.8,28.4,81,30.46,10.0,North,4.6,-,N/A,,Clear,350,2012-11-14 12:15:00
6:35 AM,33.8,28.4,81,30.46,10.0,Calm,Calm,-,N/A,,Clear,0,2012-11-14 12:35:00
6:55 AM,32.0,28.4,87,30.46,10.0,NNW,3.5,-,N/A,,Clear,340,2012-11-14 12:55:00
7:15 AM,33.8,28.4,81,30.47,10.0,North,3.5,-,N/A,,Clear,360,2012-11-14 13:15:00
7:35 AM,33.8,28.4,81,30.48,10.0,Calm,Calm,-,N/A,,Clear,0,2012-11-14 13:35:00
7:55 AM,37.4,30.2,75,30.48,10.0,Calm,Calm,-,N/A,,Clear,0,2012-11-14 13:55:00
8:15 AM,39.2,30.2,70,30.48,7.0,NE,6.9,-,N/A,,Clear,40,2012-11-14 14:15:00
8:35 AM,41.0,30.2,65,30.47,5.0,NE,6.9,-,N/A,,Haze,50,2012-11-14 14:35:00
8:55 AM,39.2,30.2,70,30.47,10.0,NE,6.9,-,N/A,,Clear,40,2012-11-14 14:55:00
9:15 AM,41.0,30.2,65,30.46,10.0,NNE,6.9,-,N/A,,Clear,30,2012-11-14 15:15:00
9:35 AM,41.0,32.0,70,30.46,10.0,NNE,5.8,-,N/A,,Clear,30,2012-11-14 15:35:00
9:55 AM,42.8,32.0,66,30.47,10.0,North,3.5,-,N/A,,Clear,360,2012-11-14 15:55:00
10:15 AM,42.8,32.0,66,30.47,10.0,NNE,6.9,-,N/A,,Clear,30,2012-11-14 16:15:00
10:35 AM,44.6,30.2,57,30.48,10.0,Calm,Calm,-,N/A,,Clear,0,2012-11-14 16:35:00
10:55 AM,44.6,32.0,61,30.46,10.0,North,4.6,-,N/A,,Clear,10,2012-11-14 16:55:00
11:15 AM,44.6,32.0,61,30.45,7.0,North,4.6,-,N/A,,Clear,360,2012-11-14 17:15:00
11:35 AM,44.6,30.2,57,30.44,10.0,NNE,3.5,-,N/A,,Clear,20,2012-11-14 17:35:00
11:55 AM,46.4,30.2,53,30.42,10.0,North,9.2,-,N/A,,Clear,10,2012-11-14 17:55:00
12:15 PM,46.4,30.2,53,30.42,10.0,NNE,6.9,-,N/A,,Clear,20,2012-11-14 18:15:00
12:35 PM,46.4,30.2,53,30.42,10.0,NE,8.1,-,N/A,,Clear,40,2012-11-14 18:35:00
12:55 PM,48.2,30.2,50,30.41,10.0,NNE,8.1,-,N/A,,Clear,20,2012-11-14 18:55:00
1:15 PM,48.2,30.2,50,30.41,10.0,NE,8.1,-,N/A,,Clear,40,2012-11-14 19:15:00
1:35 PM,48.2,28.4,46,30.40,10.0,NNE,10.4,-,N/A,,Clear,30,2012-11-14 19:35:00
1:55 PM,48.2,30.2,50,30.39,10.0,North,8.1,-,N/A,,Clear,10,2012-11-14 19:55:00
2:15 PM,48.2,28.4,46,30.39,10.0,NNE,6.9,-,N/A,,Scattered Clouds,20,2012-11-14 20:15:00
2:35 PM,48.2,28.4,46,30.38,10.0,North,6.9,-,N/A,,Scattered Clouds,10,2012-11-14 20:35:00
2:55 PM,48.2,28.4,46,30.37,10.0,NNE,9.2,-,N/A,,Clear,30,2012-11-14 20:55:00
3:15 PM,50.0,28.4,43,30.37,10.0,NE,6.9,-,N/A,,Clear,40,2012-11-14 21:15:00
3:35 PM,50.0,28.4,43,30.37,10.0,NE,8.1,-,N/A,,Clear,50,2012-11-14 21:35:00
3:55 PM,48.2,28.4,46,30.37,10.0,NE,8.1,-,N/A,,Clear,40,2012-11-14 21:55:00
4:15 PM,48.2,30.2,50,30.37,10.0,NE,8.1,-,N/A,,Clear,40,2012-11-14 22:15:00
4:35 PM,46.4,30.2,53,30.36,10.0,North,4.6,-,N/A,,Clear,10,2012-11-14 22:35:00
4:55 PM,44.6,28.4,53,30.36,10.0,NNE,4.6,-,N/A,,Clear,20,2012-11-14 22:55:00
5:15 PM,44.6,28.4,53,30.36,10.0,NNE,3.5,-,N/A,,Clear,20,2012-11-14 23:15:00
5:35 PM,41.0,30.2,65,30.37,10.0,Calm,Calm,-,N/A,,Clear,0,2012-11-14 23:35:00
5:55 PM,39.2,28.4,65,30.37,10.0,Calm,Calm,-,N/A,,Clear,0,2012-11-14 23:55:00
6:15 PM,37.4,28.4,70,30.37,10.0,Calm,Calm,-,N/A,,Clear,0,2012-11-15 00:15:00
6:35 PM,35.6,28.4,75,30.38,10.0,North,3.5,-,N/A,,Clear,350,2012-11-15 00:35:00
6:55 PM,37.4,30.2,75,30.37,10.0,North,3.5,-,N/A,,Clear,10,2012-11-15 00:55:00
7:15 PM,33.8,28.4,81,30.38,10.0,NNE,3.5,-,N/A,,Clear,30,2012-11-15 01:15:00
7:35 PM,35.6,30.2,81,30.37,10.0,NE,5.8,-,N/A,,Clear,40,2012-11-15 01:35:00
7:55 PM,37.4,30.2,75,30.37,10.0,NNE,4.6,-,N/A,,Clear,30,2012-11-15 01:55:00
8:35 PM,37.4,30.2,75,30.37,10.0,NNE,3.5,-,N/A,,Clear,30,2012-11-15 02:35:00
8:55 PM,33.8,26.6,75,30.37,10.0,Calm,Calm,-,N/A,,Clear,0,2012-11-15 02:55:00
9:15 PM,33.8,26.6,75,30.37,10.0,Calm,Calm,-,N/A,,Clear,0,2012-11-15 03:15:00
9:35 PM,33.8,28.4,81,30.36,10.0,Calm,Calm,-,N/A,,Clear,0,2012-11-15 03:35:00
9:55 PM,32.0,28.4,87,30.36,10.0,NNW,3.5,-,N/A,,Clear,330,2012-11-15 03:55:00
10:15 PM,32.0,28.4,87,30.36,10.0,North,3.5,-,N/A,,Clear,350,2012-11-15 04:15:00
10:35 PM,33.8,28.4,81,30.36,10.0,Calm,Calm,-,N/A,,Clear,0,2012-11-15 04:35:00
10:55 PM,32.0,28.4,87,30.36,10.0,Calm,Calm,-,N/A,,Clear,0,2012-11-15 04:55:00
11:15 PM,32.0,26.6,80,30.36,10.0,Calm,Calm,-,N/A,,Clear,0,2012-11-15 05:15:00
11:35 PM,32.0,26.6,80,30.36,10.0,Calm,Calm,-,N/A,,Clear,0,2012-11-15 05:35:00
11:55 PM,32.0,28.4,87,30.35,10.0,Calm,Calm,-,N/A,,Clear,0,2012-11-15 05:55:00